Temp
-14 -14 -14 -14 -14 -14 -14 -14 -14 -15 -14 -14 -14 -14 -15 -15 -15 -14 -14 -14 -14 -14 -14 -15 -15 -16 -16 -17 -16 -16 -16 -16 -16 -16 -16 -16 -15 -15 -15 -15 -15 -15 -15 -15
-15 -14 -15 -15 -15 -15 -15 -14 -15 -15 -15 -15 -15 -15 -15 -15 -15 -15 -15 -15 -15 -15 -16 -16 -17 -17 -17 -17 -17 -17 -17 -16 -16 -16 -16 -16 -16 -16 -16 -15 -15 -15 -16 -16
-15 -15 -15 -15 -15 -15 -15 -15 -15 -15 -15 -15 -15 -15 -15 -15 -15 -15 -15 -16 -16 -16 -17 -17 -18 -18 -18 -18 -18 -18 -18 -18 -17 -17 -17 -17 -16 -16 -16 -16 -16 -16 -16 -16
-15 -15 -15 -16 -15 -16 -16 -16 -16 -16 -16 -16 -16 -15 -15 -15 -15 -16 -16 -16 -17 -17 -17 -18 -18 -18 -18 -18 -19 -19 -19 -19 -18 -18 -18 -17 -17 -17 -16 -16 -16 -16 -16 -16
-16 -16 -16 -16 -16 -16 -16 -16 -16 -16 -16 -16 -16 -16 -15 -16 -16 -17 -17 -17 -18 -18 -18 -18 -18 -18 -18 -19 -19 -19 -19 -19 -19 -19 -18 -18 -17 -17 -17 -16 -16 -17 -16 -16
-16 -16 -16 -16 -16 -16 -17 -17 -17 -17 -16 -16 -16 -16 -15 -16 -17 -17 -17 -18 -18 -17 -17 -18 -18 -19 -19 -19 -19 -20 -19 -19 -19 -19 -18 -18 -18 -17 -17 -17 -17 -16 -16 -16
-16 -16 -16 -17 -17 -17 -17 -18 -18 -17 -17 -17 -16 -16 -16 -17 -17 -17 -18 -18 -18 -18 -19 -19 -19 -19 -19 -20 -20 -20 -20 -20 -20 -19 -18 -18 -17 -17 -17 -17 -17 -17 -17 -17
-17 -17 -17 -17 -17 -17 -18 -18 -18 -17 -17 -17 -17 -16 -17 -17 -17 -18 -18 -18 -18 -18 -19 -20 -20 -20 -20 -20 -20 -20 -20 -19 -19 -19 -19 -18 -17 -17 -17 -17 -17 -17 -17 -17
-17 -17 -17 -17 -18 -18 -18 -18 -18 -18 -17 -17 -17 -17 -17 -18 -18 -18 -18 -18 -18 -19 -20 -20 -20 -20 -20 -20 -20 -20 -20 -20 -19 -19 -18 -18 -18 -18 -18 -18 -18 -18 -18 -18
-17 -17 -17 -18 -18 -18 -18 -18 -18 -19 -18 -17 -17 -17 -18 -18 -18 -18 -18 -18 -19 -19 -20 -20 -20 -20 -20 -20 -20 -19 -19 -19 -19 -19 -18 -18 -18 -18 -18 -18 -18 -18 -18 -18
-18 -18 -18 -18 -18 -18 -18 -18 -19 -19 -18 -18 -17 -17 -18 -18 -18 -18 -18 -18 -19 -20 -20 -20 -20 -20 -20 -20 -20 -19 -19 -19 -19 -19 -19 -19 -18 -18 -18 -18 -19 -19 -19 -18
-18 -18 -18 -18 -18 -19 -19 -19 -19 -19 -19 -19 -18 -17 -18 -18 -18 -18 -18 -18 -19 -20 -20 -20 -20 -20 -20 -20 -20 -19 -19 -19 -19 -19 -19 -19 -19 -19 -19 -19 -19 -19 -19 -18
-18 -18 -18 -18 -19 -19 -19 -20 -20 -19 -19 -19 -19 -18 -19 -18 -18 -18 -18 -18 -19 -20 -20 -20 -20 -20 -20 -20 -20 -19 -19 -19 -19 -19 -19 -19 -19 -19 -19 -19 -19 -19 -18 -18
-19 -19 -19 -20 -20 -21 -20 -20 -20 -20 -19 -19 -18 -19 -19 -18 -18 -18 -18 -18 -19 -20 -20 -20 -20 -20 -20 -20 -20 -19 -19 -19 -19 -19 -19 -19 -19 -19 -19 -19 -19 -18 -18 -18
-20 -19 -20 -19 -21 -21 -21 -21 -20 -20 -20 -19 -19 -19 -19 -18 -19 -19 -18 -18 -19 -19 -19 -20 -20 -20 -20 -19 -20 -19 -19 -19 -19 -19 -19 -19 -19 -19 -19 -19 -19 -18 -18 -18
-20 -20 -20 -21 -21 -22 -21 -21 -21 -20 -20 -19 -19 -19 -19 -19 -19 -19 -19 -18 -19 -19 -20 -20 -20 -20 -20 -19 -20 -19 -19 -19 -20 -19 -19 -19 -19 -19 -19 -19 -19 -18 -18 -18
-21 -21 -22 -22 -22 -22 -20 -21 -21 -21 -20 -20 -20 -20 -20 -19 -19 -19 -19 -19 -19 -19 -20 -20 -20 -20 -20 -20 -20 -20 -20 -20 -20 -20 -20 -20 -20 -19 -19 -19 -19 -19 -18 -18
-22 -23 -24 -22 -23 -21 -21 -21 -21 -21 -20 -20 -20 -20 -20 -20 -19 -19 -19 -19 -20 -20 -20 -20 -20 -20 -20 -20 -20 -20 -20 -20 -20 -20 -20 -20 -20 -19 -19 -19 -19 -19 -19 -19
-24 -24 -23 -23 -22 -22 -21 -21 -21 -21 -21 -21 -21 -20 -20 -20 -20 -20 -19 -19 -20 -20 -20 -21 -21 -21 -21 -21 -21 -20 -20 -20 -20 -20 -20 -20 -20 -20 -19 -19 -19 -19 -19 -19
-24 -23 -23 -23 -22 -22 -22 -22 -22 -21 -21 -21 -21 -21 -20 -20 -20 -20 -20 -20 -20 -20 -21 -21 -21 -21 -21 -21 -21 -21 -21 -21 -20 -20 -20 -20 -20 -20 -20 -20 -19 -19 -19 -19
-24 -24 -23 -23 -23 -22 -22 -22 -22 -22 -22 -21 -21 -21 -21 -21 -21 -21 -20 -20 -20 -21 -21 -21 -21 -21 -21 -21 -21 -21 -21 -21 -21 -21 -20 -20 -20 -20 -20 -20 -19 -19 -19 -19
-23 -23 -23 -23 -22 -22 -22 -22 -22 -22 -22 -22 -22 -22 -21 -21 -21 -21 -21 -21 -21 -21 -21 -21 -21 -22 -21 -21 -21 -21 -21 -21 -21 -21 -21 -21 -20 -20 -20 -20 -20 -19 -19 -19
-24 -23 -23 -23 -23 -23 -23 -23 -23 -23 -23 -22 -22 -22 -22 -22 -22 -22 -22 -22 -21 -21 -21 -22 -21 -22 -22 -22 -22 -22 -21 -21 -21 -21 -21 -21 -20 -20 -20 -20 -20 -20 -19 -19
-24 -24 -24 -24 -24 -24 -24 -23 -23 -23 -23 -23 -23 -23 -23 -23 -23 -23 -22 -22 -22 -22 -22 -23 -22 -22 -22 -22 -22 -22 -22 -21 -21 -21 -21 -21 -20 -20 -20 -20 -20 -20 -20 -19
-24 -24 -24 -24 -24 -24 -23 -23 -23 -23 -23 -23 -23 -23 -23 -23 -23 -23 -23 -23 -23 -23 -23 -23 -23 -23 -23 -23 -23 -23 -22 -22 -22 -22 -21 -21 -21 -21 -21 -20 -20 -20 -21 -20
-25 -24 -24 -24 -24 -24 -24 -24 -24 -24 -24 -24 -24 -24 -24 -24 -24 -24 -24 -24 -24 -24 -24 -24 -24 -24 -24 -23 -23 -23 -23 -23 -23 -23 -23 -23 -23 -22 -22 -22 -22 -22 -21 -21
Height
5702 5705 5707 5705 5707 5707 5707 5708 5708 5707 5706 5706 5705 5705 5700 5700 5698 5695 5692 5690 5686 5683 5680 5677 5674 5670 5668 5666 5665 5666 5666 5665 5666 5667 5669 5670 5671 5672 5673 5674 5674 5675 5674 5674
5692 5695 5694 5695 5696 5697 5697 5697 5698 5697 5695 5696 5694 5693 5691 5690 5687 5684 5679 5676 5672 5668 5665 5661 5659 5656 5654 5653 5651 5650 5650 5651 5652 5654 5655 5657 5658 5660 5662 5663 5664 5664 5664 5665
5680 5684 5685 5686 5686 5687 5687 5687 5687 5687 5685 5685 5685 5684 5683 5681 5677 5672 5668 5664 5660 5656 5651 5648 5646 5644 5642 5640 5639 5638 5637 5637 5638 5640 5642 5645 5647 5650 5651 5653 5654 5654 5655 5656
5669 5673 5675 5676 5677 5677 5677 5678 5677 5678 5677 5676 5676 5674 5674 5671 5666 5661 5657 5653 5649 5644 5640 5637 5635 5633 5631 5629 5628 5627 5626 5626 5626 5628 5631 5634 5637 5639 5641 5643 5644 5646 5647 5648
5660 5662 5663 5665 5667 5667 5668 5667 5667 5667 5667 5667 5667 5663 5665 5661 5656 5651 5647 5642 5639 5635 5631 5626 5622 5620 5618 5617 5617 5617 5616 5615 5616 5618 5620 5624 5627 5629 5632 5634 5635 5637 5639 5639
5647 5651 5653 5655 5655 5656 5657 5657 5657 5658 5659 5658 5657 5655 5656 5652 5647 5642 5638 5634 5629 5625 5619 5613 5610 5610 5609 5608 5608 5608 5607 5606 5607 5609 5612 5615 5618 5621 5624 5627 5628 5630 5631 5631
5638 5640 5642 5643 5644 5646 5646 5648 5649 5649 5649 5649 5648 5646 5646 5642 5638 5634 5629 5626 5620 5613 5607 5602 5600 5600 5600 5599 5599 5599 5597 5598 5599 5602 5605 5608 5611 5615 5618 5620 5621 5623 5622 5622
5627 5630 5632 5634 5635 5636 5637 5639 5640 5639 5640 5640 5638 5637 5638 5633 5628 5625 5622 5617 5611 5604 5598 5595 5594 5593 5592 5592 5591 5591 5591 5592 5594 5596 5600 5603 5606 5609 5612 5613 5614 5615 5615 5616
5617 5620 5622 5623 5624 5627 5630 5630 5632 5630 5631 5630 5630 5629 5628 5624 5621 5618 5614 5609 5603 5597 5593 5591 5589 5588 5587 5586 5587 5587 5587 5588 5590 5593 5596 5599 5601 5604 5606 5607 5608 5609 5609 5608
5607 5610 5613 5614 5616 5618 5620 5622 5622 5623 5622 5621 5621 5620 5619 5616 5613 5610 5607 5601 5595 5592 5589 5587 5586 5585 5584 5584 5584 5584 5584 5585 5587 5590 5593 5595 5597 5599 5601 5602 5603 5603 5602 5601
5597 5600 5604 5605 5607 5609 5611 5612 5613 5614 5614 5613 5613 5612 5610 5608 5606 5603 5599 5594 5589 5586 5584 5584 5583 5582 5582 5581 5580 5580 5581 5582 5585 5587 5589 5592 5593 5595 5596 5597 5597 5597 5596 5594
5585 5589 5592 5595 5598 5599 5601 5603 5604 5605 5605 5605 5605 5606 5602 5599 5598 5595 5592 5588 5583 5581 5581 5580 5579 5579 5579 5578 5578 5578 5579 5581 5583 5585 5587 5589 5590 5591 5592 5592 5592 5591 5590 5588
5574 5578 5581 5585 5589 5590 5592 5595 5596 5597 5596 5596 5597 5598 5594 5592 5590 5589 5585 5581 5577 5577 5576 5576 5576 5575 5576 5575 5576 5576 5577 5579 5581 5583 5584 5585 5586 5586 5587 5588 5587 5586 5584 5583
5563 5569 5572 5577 5579 5582 5584 5586 5587 5587 5588 5590 5588 5588 5586 5583 5583 5582 5579 5574 5572 5571 5572 5572 5572 5572 5572 5572 5573 5573 5575 5576 5578 5579 5580 5581 5581 5583 5583 5582 5581 5579 5578 5577
5556 5559 5563 5565 5568 5572 5575 5577 5577 5579 5581 5579 5581 5579 5579 5575 5576 5574 5571 5568 5565 5565 5566 5567 5567 5568 5568 5569 5569 5570 5571 5573 5574 5575 5576 5577 5577 5577 5576 5576 5575 5573 5572 5570
5546 5550 5553 5555 5559 5563 5566 5568 5570 5571 5571 5572 5570 5572 5569 5570 5568 5566 5564 5562 5560 5559 5559 5560 5562 5562 5563 5564 5564 5566 5567 5568 5570 5570 5570 5571 5571 5570 5570 5569 5568 5566 5565 5563
5536 5540 5543 5547 5551 5554 5557 5562 5561 5563 5563 5562 5562 5562 5562 5561 5560 5558 5558 5555 5554 5554 5554 5554 5555 5556 5557 5558 5559 5561 5562 5563 5564 5564 5564 5565 5565 5564 5563 5562 5561 5559 5557 5555
5527 5531 5535 5538 5543 5544 5549 5552 5553 5553 5554 5553 5554 5554 5553 5553 5553 5552 5551 5548 5546 5547 5547 5547 5548 5549 5550 5551 5552 5554 5555 5556 5557 5558 5558 5558 5558 5557 5556 5554 5553 5551 5549 5546
5520 5524 5528 5531 5534 5538 5540 5542 5544 5544 5545 5543 5544 5545 5544 5544 5544 5543 5543 5541 5539 5538 5539 5540 5540 5541 5543 5544 5544 5545 5547 5548 5549 5550 5550 5550 5549 5548 5548 5546 5545 5543 5541 5538
5513 5517 5521 5525 5527 5529 5530 5533 5534 5534 5535 5536 5535 5536 5535 5535 5536 5535 5534 5533 5531 5530 5531 5531 5532 5533 5535 5536 5537 5537 5538 5539 5540 5541 5541 5540 5540 5539 5538 5536 5535 5533 5531 5528
5506 5510 5513 5516 5517 5521 5522 5523 5524 5525 5529 5526 5526 5526 5527 5526 5527 5527 5526 5525 5524 5522 5522 5522 5523 5524 5525 5526 5528 5529 5529 5530 5530 5531 5530 5530 5529 5529 5528 5526 5523 5521 5519 5517
5500 5503 5506 5507 5509 5512 5513 5513 5514 5515 5515 5516 5516 5516 5517 5517 5517 5517 5517 5516 5515 5514 5513 5513 5513 5514 5515 5516 5517 5518 5518 5519 5519 5519 5519 5518 5517 5516 5515 5514 5511 5508 5506 5504
5493 5495 5497 5500 5501 5501 5501 5503 5504 5505 5506 5506 5507 5507 5508 5508 5508 5507 5507 5507 5506 5505 5504 5504 5504 5504 5505 5505 5505 5506 5506 5507 5506 5507 5506 5505 5504 5502 5501 5500 5498 5495 5492 5490
5484 5486 5489 5491 5493 5492 5493 5494 5495 5495 5496 5497 5497 5498 5499 5499 5499 5499 5498 5498 5497 5496 5495 5495 5495 5494 5494 5494 5494 5494 5494 5493 5493 5493 5492 5491 5490 5488 5486 5485 5483 5480 5477 5474
5475 5477 5479 5482 5481 5483 5483 5484 5486 5486 5487 5488 5489 5489 5490 5490 5490 5490 5490 5489 5489 5488 5487 5486 5486 5486 5485 5484 5483 5482 5482 5481 5480 5479 5478 5477 5476 5474 5472 5470 5468 5466 5463 5460
5466 5469 5472 5474 5474 5475 5475 5476 5477 5478 5478 5479 5480 5480 5481 5481 5481 5482 5481 5481 5480 5479 5478 5478 5477 5477 5476 5476 5475 5474 5472 5470 5468 5467 5466 5464 5463 5462 5461 5459 5455 5453 5451 5448
Wind_Speed
43 42 39 40 38 39 39 38 38 38 41 41 41 38 41 39 41 43 47 49 51 52 53 52 54 54 52 52 53 54 56 54 52 51 50 50 49 49 47 44 43 42 40 39
42 40 41 40 38 38 38 38 38 40 41 41 39 37 39 39 42 46 48 49 49 50 50 49 47 46 45 45 47 49 51 52 52 50 48 46 46 45 44 42 40 38 36 36
42 41 40 39 38 38 38 39 40 41 40 38 36 37 37 40 44 43 43 44 45 46 44 41 38 37 37 38 39 43 45 47 47 47 47 44 43 41 40 37 34 32 33 33
43 40 38 38 38 40 40 40 40 40 37 35 36 39 36 40 40 41 42 42 41 41 40 41 41 43 43 40 38 38 39 42 43 44 44 41 38 35 33 31 30 31 31 30
41 40 40 40 40 41 41 41 39 36 35 35 36 39 36 37 35 37 40 39 38 39 42 45 47 43 39 39 39 38 38 38 38 38 35 33 31 30 30 31 31 29 27 27
43 42 41 42 42 43 41 39 34 34 35 37 36 37 35 33 34 37 38 36 37 42 44 43 41 36 31 31 33 35 36 35 31 30 28 28 29 29 28 27 25 25 25 26
38 39 40 41 41 40 38 31 34 36 36 36 36 36 31 31 34 35 33 34 39 40 37 37 36 31 29 29 29 30 30 27 25 25 26 27 26 25 24 24 24 22 21 23
35 36 36 37 38 34 30 32 35 35 36 36 34 33 29 30 32 33 32 34 37 33 29 26 26 26 24 24 23 23 24 25 26 23 24 25 26 23 22 20 18 19 19 20
36 36 35 35 34 32 32 33 32 34 34 34 34 30 28 29 31 32 32 33 32 28 21 19 18 18 18 17 16 15 15 15 18 20 22 23 22 19 17 17 17 16 18 17
37 35 34 35 35 37 37 33 33 32 34 35 32 28 26 26 30 32 31 32 30 23 20 16 14 13 11 13 17 17 17 18 19 18 18 18 16 15 15 14 15 16 13 12
38 38 37 38 39 38 36 33 31 32 34 35 32 28 25 27 29 30 31 32 27 21 18 15 12 12 13 14 15 15 15 14 16 17 17 15 14 14 14 14 13 13 10 10
41 42 41 42 40 37 35 33 32 34 34 33 31 26 25 28 30 30 30 31 24 19 17 16 15 15 14 13 12 11 12 14 16 15 14 14 15 16 15 14 13 10 8 9
45 42 40 38 38 36 33 30 32 34 34 33 29 27 28 29 28 28 29 29 23 19 17 17 18 14 13 13 13 13 14 16 15 15 15 17 16 14 14 14 13 10 11 14
45 38 40 39 36 34 31 31 32 34 34 29 30 28 29 29 27 28 27 28 21 20 18 19 17 16 15 15 16 16 17 17 16 16 16 15 15 16 17 16 14 12 15 17
47 42 44 42 36 34 33 33 34 34 30 33 29 31 28 31 26 27 27 26 22 22 23 21 20 18 17 18 18 19 19 18 18 18 17 19 20 21 18 16 14 14 16 18
44 42 40 37 36 34 35 36 33 31 31 32 33 28 31 30 28 25 26 23 24 23 24 24 23 21 20 20 20 21 20 21 21 21 21 22 23 21 19 18 16 15 17 19
44 42 36 36 35 37 38 32 32 31 31 34 33 33 31 31 30 26 27 23 23 23 24 25 27 24 24 23 24 24 24 25 25 24 23 23 24 23 21 20 20 20 21 22
37 34 32 36 36 39 37 32 30 31 33 33 33 33 33 32 30 28 27 24 23 25 25 27 28 28 26 27 28 28 28 28 29 28 26 26 27 26 25 24 24 25 26 26
34 35 35 35 33 35 35 32 30 31 31 33 32 32 33 33 31 31 28 26 23 26 27 27 31 32 30 30 31 32 32 33 33 32 32 31 31 31 30 29 29 30 31 32
27 28 30 31 32 33 34 33 31 32 32 33 34 34 34 34 32 32 29 28 25 25 30 31 32 35 35 34 35 36 37 37 37 37 37 36 36 36 36 36 36 37 37 39
29 29 30 31 33 32 33 33 34 34 34 34 35 34 34 34 32 32 30 28 28 26 26 31 34 34 38 38 39 40 41 42 42 42 42 42 42 41 41 42 44 45 45 45
29 30 30 31 32 33 32 33 34 34 35 35 35 34 34 34 32 31 31 29 29 28 27 27 31 35 36 40 42 43 44 45 46 47 47 47 48 48 48 48 49 50 51 50
27 28 29 30 30 32 34 32 33 33 34 34 33 33 34 34 33 31 30 29 28 28 28 28 28 32 35 35 39 45 47 47 47 49 49 51 52 52 52 52 52 53 54 53
26 26 26 27 27 30 30 30 30 31 32 32 33 32 32 33 31 30 29 28 27 27 28 28 28 28 29 36 37 36 41 46 48 50 51 51 52 53 54 54 54 54 54 53
26 26 27 27 29 30 30 31 32 33 33 32 32 32 32 31 30 29 28 28 27 25 25 26 27 26 25 25 26 31 36 40 42 42 44 45 47 48 48 48 47 46 46 46
28 29 29 30 31 32 32 32 31 31 31 31 31 30 29 29 28 27 27 27 27 26 24 24 25 27 27 28 28 26 24 26 26 27 31 34 36 36 36 37 39 38 39 40
Wind_Direction
258 259 263 261 264 265 267 269 271 271 274 276 277 276 271 275 280 282 285 287 286 285 284 281 279 277 275 273 269 267 265 265 264 263 262 262 262 264 265 266 268 269 270 270
255 255 257 261 263 264 265 268 270 270 273 275 275 273 275 281 284 286 287 289 289 288 286 283 279 276 273 269 267 266 263 263 263 263 261 261 262 263 264 265 267 267 266 265
253 254 257 260 262 263 265 267 269 272 273 272 271 271 276 282 286 287 289 291 290 288 285 284 281 280 278 272 268 266 264 261 258 258 259 259 260 262 262 263 260 257 257 256
253 254 255 259 261 263 264 266 267 269 266 268 271 276 280 286 287 290 293 294 291 290 288 286 283 282 277 272 268 267 268 265 260 257 256 255 255 257 256 253 250 249 251 259
250 250 255 258 260 261 263 265 266 263 264 269 275 280 284 287 290 294 295 292 294 293 289 284 281 279 278 272 267 264 266 267 262 256 253 250 248 244 242 243 244 248 252 265
249 252 255 256 257 259 263 260 258 261 266 271 276 282 285 287 291 294 294 297 297 297 289 282 275 268 270 272 268 269 266 268 262 251 243 241 241 238 236 240 244 250 260 273
249 251 253 254 256 258 252 251 258 264 269 274 278 282 286 290 293 294 297 299 304 300 289 280 277 269 268 272 269 274 267 258 246 238 238 239 232 228 231 240 246 252 267 278
248 249 251 254 253 245 245 250 259 268 273 275 277 279 284 292 295 297 300 305 310 300 292 282 276 270 271 272 268 265 260 252 248 236 232 227 221 225 239 244 254 263 274 275
243 248 250 245 240 241 246 254 261 267 270 272 276 278 284 291 295 298 302 310 311 299 291 284 278 270 269 258 258 263 252 237 232 229 226 223 227 232 238 248 255 267 265 273
245 246 245 242 242 244 248 252 259 262 267 272 273 275 283 291 294 300 303 310 309 289 280 277 273 259 260 247 246 256 246 237 236 229 223 223 222 232 239 250 259 261 266 279
245 245 243 241 247 248 249 253 257 261 266 273 270 273 284 287 293 299 302 309 304 288 266 264 268 257 257 258 257 247 236 225 219 213 210 218 227 238 244 252 254 257 271 297
242 241 243 245 247 246 246 249 254 260 266 268 268 272 287 286 294 297 304 304 294 266 264 262 262 264 250 254 241 217 214 209 198 206 217 228 239 245 249 248 256 262 288 310
239 245 244 247 248 248 248 250 253 261 265 265 267 274 275 283 291 299 303 301 287 256 265 261 262 249 250 238 223 216 203 200 212 223 234 244 245 244 245 251 259 273 292 304
239 245 248 245 242 242 247 247 253 259 265 266 263 272 273 280 290 297 297 298 277 249 266 261 250 242 243 233 226 216 211 218 226 235 237 238 241 241 248 252 256 273 293 296
240 242 243 238 235 237 243 249 256 262 265 262 265 264 271 274 288 292 294 295 267 257 259 257 247 243 236 235 227 218 222 226 234 233 239 243 242 244 245 250 260 274 286 291
237 236 235 234 236 239 246 251 257 260 261 261 262 266 266 274 281 288 287 292 275 261 254 253 248 245 239 239 229 227 227 231 236 246 243 240 240 240 246 252 261 272 280 289
235 233 228 233 236 243 250 253 258 259 259 260 264 266 271 274 278 282 283 282 280 266 251 249 250 248 243 237 233 231 231 236 241 244 240 239 242 247 253 260 268 276 282 289
228 227 229 234 238 247 254 257 257 257 257 260 265 268 272 273 275 277 279 274 271 269 260 251 249 248 245 240 237 235 237 239 243 242 243 245 250 254 260 266 273 279 284 289
223 227 235 240 241 247 252 258 259 258 260 264 268 269 270 272 273 274 276 273 269 263 258 255 249 249 247 244 241 240 239 242 244 246 247 250 255 260 264 270 275 280 285 289
224 231 237 241 247 249 253 259 263 264 265 267 268 269 269 271 273 272 273 275 271 264 257 256 256 250 249 247 247 245 245 246 247 250 252 253 257 263 269 273 278 282 285 289
231 238 243 247 251 253 261 263 263 263 265 266 268 269 270 269 270 271 272 273 273 268 264 260 255 257 251 250 250 250 251 252 254 255 258 260 263 265 269 274 279 282 285 288
236 239 244 250 256 260 261 263 264 264 264 264 266 268 269 269 269 268 271 272 273 273 268 268 263 259 261 255 251 253 255 256 258 260 263 265 267 270 272 275 278 281 284 286
242 244 248 253 257 259 261 261 262 262 263 264 265 266 267 267 268 268 269 272 273 275 275 271 272 265 262 265 259 256 257 259 261 263 265 266 269 272 274 277 280 282 284 285
242 246 251 253 254 255 258 260 261 263 265 266 266 265 265 266 267 267 269 272 274 273 273 273 274 276 274 262 262 265 263 263 265 267 269 270 272 274 276 278 281 283 286 287
251 256 257 258 259 260 262 263 264 265 267 267 267 266 264 265 265 266 268 271 274 275 275 272 273 273 276 278 277 272 268 268 269 271 272 273 275 276 278 280 282 283 285 287
251 252 255 256 258 258 260 261 262 263 264 264 263 263 262 263 265 267 269 271 275 279 281 278 273 274 274 277 280 283 281 276 270 271 274 275 274 275 277 280 282 283 284 285